Location: Beccas
(43.4309°N, 0.1528°E)
Time: 09:17:04
(UTC+00:00)

SL-08 R/B - Pass Details

Date: 15 October 2021
Orbit: 950 x 1018 km, 82.9° (Epoch: 07 December)

Event Time Altitude Azimuth Distance (km) Brightness Sun altitude
Rises 18:15:29 0° 183° (S) 3,623 7.5 -11.5°
Reaches altitude 10° 18:17:57 10° 182° (S) 2,688 6.9 -12.0°
Maximum altitude 18:24:06 82° 95° (E) 987 4.4 -13.1°
Drops below altitude 10° 18:30:24 10° 10° (N) 2,751 6.8 -14.3°
Sets 18:32:57 0° 9° (N) 3,714 7.5 -14.7°
